Precipitable_Water
1.94 1.91 1.92 1.94 1.97 1.94 1.92 1.92 1.93 1.95 1.91 1.89 1.87 1.88 1.90 1.91 1.92 1.91 1.92 1.86 1.84 1.78 1.69 1.74 1.82 1.84 1.84 1.83 1.80 1.75 1.68 1.61 1.59 1.62 1.59 1.51 1.51 1.52 1.56 1.61 1.61 1.70 1.74 1.66 1.61 1.54 1.54 1.55 1.55 1.55 1.58 1.52 1.48 1.46 1.41 1.39 1.37 1.34 1.33 1.33 1.29 1.29 1.26 1.25 1.17 1.18 1.36 1.61 1.66 1.67 1.70 1.65 1.68 1.73 1.68 1.72 1.72 1.78 1.84 1.82 1.74 1.66 1.63 1.62 1.60
1.94 1.96 1.97 1.96 1.93 1.93 1.89 1.88 1.88 1.91 1.85 1.83 1.81 1.87 1.92 1.93 1.91 1.90 1.90 1.91 1.88 1.84 1.77 1.74 1.79 1.82 1.85 1.84 1.83 1.81 1.74 1.66 1.61 1.63 1.63 1.61 1.62 1.60 1.54 1.53 1.56 1.61 1.65 1.67 1.68 1.63 1.60 1.57 1.55 1.53 1.53 1.48 1.48 1.45 1.42 1.38 1.33 1.28 1.28 1.28 1.26 1.26 1.34 1.30 1.29 1.24 1.24 1.48 1.56 1.70 1.70 1.77 1.68 1.76 1.65 1.64 1.74 1.82 1.85 1.93 1.99 1.77 1.72 1.70 1.67
1.94 1.91 1.92 1.91 1.87 1.87 1.88 1.87 1.89 1.86 1.84 1.81 1.78 1.84 1.93 1.92 1.93 1.92 1.92 1.90 1.89 1.85 1.86 1.86 1.82 1.81 1.81 1.83 1.86 1.83 1.79 1.74 1.68 1.61 1.63 1.68 1.67 1.66 1.68 1.68 1.61 1.57 1.56 1.59 1.63 1.67 1.65 1.60 1.54 1.51 1.52 1.48 1.45 1.43 1.44 1.40 1.36 1.29 1.27 1.29 1.28 1.36 1.45 1.48 1.39 1.31 1.30 1.38 1.53 1.54 1.60 1.71 1.71 1.72 1.78 1.85 1.89 1.94 1.90 1.87 1.99 2.08 2.00 1.86 1.73
1.91 1.82 1.85 1.86 1.84 1.79 1.80 1.84 1.84 1.86 1.84 1.82 1.80 1.86 1.93 1.94 1.98 1.99 2.01 1.97 1.95 1.96 1.97 2.01 1.97 1.87 1.81 1.81 1.81 1.84 1.88 1.87 1.83 1.79 1.70 1.65 1.66 1.74 1.77 1.73 1.73 1.70 1.67 1.63 1.61 1.62 1.61 1.57 1.54 1.54 1.54 1.51 1.49 1.46 1.46 1.44 1.39 1.38 1.41 1.44 1.47 1.45 1.52 1.51 1.41 1.29 1.29 1.30 1.46 1.55 1.63 1.57 1.57 1.67 1.75 1.76 1.69 1.72 1.68 1.71 1.87 1.94 2.04 2.12 1.95
1.83 1.82 1.87 1.88 1.80 1.70 1.70 1.76 1.84 1.91 1.92 1.90 1.93 1.91 1.92 1.94 1.97 2.02 2.05 2.03 2.06 2.05 2.02 2.04 2.07 2.06 1.91 1.84 1.83 1.83 1.85 1.86 1.86 1.87 1.86 1.84 1.79 1.77 1.76 1.76 1.76 1.77 1.74 1.72 1.70 1.68 1.67 1.63 1.61 1.58 1.58 1.52 1.50 1.50 1.53 1.53 1.53 1.49 1.45 1.48 1.46 1.47 1.49 1.47 1.40 1.37 1.32 1.29 1.37 1.50 1.61 1.68 1.72 1.76 1.81 1.70 1.71 1.76 1.77 1.72 1.78 1.84 1.87 2.01 2.06
1.87 1.90 1.92 1.88 1.85 1.74 1.71 1.81 1.90 1.98 2.08 2.11 2.07 2.02 2.00 1.98 1.97 1.98 2.00 2.02 1.97 2.00 1.96 1.91 1.82 1.86 1.94 1.91 1.88 1.89 1.88 1.86 1.87 1.88 1.88 1.86 1.91 1.84 1.81 1.82 1.82 1.83 1.84 1.75 1.74 1.75 1.79 1.77 1.74 1.70 1.67 1.60 1.58 1.62 1.62 1.60 1.63 1.60 1.61 1.63 1.58 1.58 1.55 1.58 1.55 1.46 1.41 1.42 1.44 1.43 1.49 1.44 1.46 1.57 1.70 1.71 1.62 1.57 1.67 1.73 1.71 1.76 1.78 1.81 1.95
1.93 2.01 2.09 1.96 1.88 1.82 1.80 1.85 1.90 1.98 1.96 2.01 2.07 2.09 2.08 2.00 2.00 2.00 2.05 2.01 1.96 1.93 1.96 1.96 1.98 1.94 1.95 1.97 1.93 1.90 1.88 1.87 1.85 1.87 1.86 1.87 1.89 1.86 1.84 1.88 1.90 1.86 1.85 1.82 1.82 1.79 1.74 1.72 1.82 1.85 1.76 1.72 1.69 1.65 1.59 1.59 1.61 1.63 1.62 1.57 1.60 1.56 1.57 1.58 1.57 1.54 1.48 1.40 1.41 1.43 1.37 1.42 1.44 1.37 1.54 1.68 1.72 1.71 1.63 1.60 1.57 1.70 1.74 1.72 1.77
2.20 2.06 1.96 1.78 1.78 1.77 1.88 1.85 1.83 1.85 1.87 1.89 1.93 1.98 1.97 1.95 2.10 2.17 2.14 1.99 1.90 1.88 1.89 1.91 1.94 1.95 1.94 1.95 1.94 1.94 1.91 1.87 1.87 1.90 1.90 1.88 1.85 1.85 1.86 1.82 1.80 1.81 1.85 1.86 1.85 1.82 1.80 1.84 1.90 1.94 2.01 1.90 1.75 1.68 1.67 1.65 1.68 1.64 1.69 1.65 1.58 1.51 1.45 1.45 1.44 1.44 1.41 1.37 1.32 1.30 1.37 1.37 1.39 1.41 1.50 1.54 1.52 1.56 1.64 1.59 1.48 1.52 1.65 1.80 1.85
1.90 1.69 1.58 1.60 1.76 1.80 1.79 1.88 1.97 2.04 2.07 2.09 2.11 2.11 2.07 2.01 1.93 2.00 2.00 1.95 1.91 1.90 1.92 1.93 1.92 1.93 1.95 1.96 1.96 1.97 1.93 1.89 1.88 1.89 1.89 1.90 1.88 1.83 1.80 1.78 1.78 1.79 1.79 1.79 1.81 1.83 1.86 1.89 1.90 1.95 2.08 2.01 1.92 1.83 1.83 1.85 1.81 1.74 1.77 1.70 1.57 1.48 1.45 1.45 1.44 1.40 1.36 1.33 1.29 1.34 1.34 1.31 1.31 1.35 1.42 1.44 1.42 1.41 1.59 1.65 1.56 1.63 1.72 1.74 1.83
1.58 1.62 1.62 1.68 1.74 1.76 1.78 1.84 1.90 1.97 2.03 2.03 2.05 2.09 2.07 2.03 1.99 1.96 1.96 1.94 1.92 1.92 1.94 1.96 1.95 1.93 1.93 1.96 1.97 1.96 1.94 1.93 1.93 1.96 1.99 1.96 1.95 1.92 1.88 1.85 1.84 1.85 1.85 1.82 1.78 1.81 1.83 1.85 1.88 1.91 2.01 2.11 2.07 2.09 1.98 1.92 1.89 1.86 1.76 1.66 1.59 1.56 1.54 1.49 1.45 1.42 1.38 1.31 1.29 1.29 1.27 1.27 1.34 1.43 1.48 1.56 1.62 1.69 1.65 1.63 1.54 1.64 1.74 1.71 1.79
1.68 1.66 1.68 1.70 1.76 1.76 1.77 1.78 1.89 1.94 1.94 1.95 1.95 1.95 1.95 1.94 1.93 1.90 1.92 1.93 1.91 1.94 1.96 1.94 1.95 1.98 1.95 1.94 1.96 1.99 2.02 2.01 2.00 2.00 2.00 2.00 2.00 2.00 1.96 1.93 1.92 1.92 1.93 1.91 1.85 1.83 1.85 1.91 2.00 2.03 2.02 1.96 1.93 1.92 1.88 2.06 1.96 1.80 1.76 1.73 1.71 1.64 1.56 1.50 1.47 1.50 1.47 1.45 1.47 1.47 1.43 1.41 1.46 1.55 1.57 1.66 1.74 1.75 1.78 1.69 1.61 1.65 1.62 1.65 1.55
1.57 1.60 1.62 1.67 1.70 1.73 1.75 1.81 1.84 1.85 1.85 1.83 1.87 1.93 1.97 1.93 1.90 1.92 1.93 1.90 1.91 1.93 1.90 1.92 1.94 1.95 1.95 1.97 1.97 1.99 1.99 1.98 1.99 2.01 2.01 1.99 1.98 1.96 1.95 1.93 1.92 1.91 1.90 1.93 1.93 1.96 1.97 1.99 2.02 2.04 2.02 2.01 2.06 1.91 1.88 1.95 1.93 1.83 1.80 1.78 1.76 1.77 1.79 1.73 1.65 1.60 1.60 1.57 1.54 1.56 1.58 1.55 1.58 1.63 1.67 1.70 1.81 1.83 1.77 1.78 1.71 1.67 1.63 1.58 1.63
1.54 1.54 1.56 1.58 1.66 1.69 1.71 1.74 1.77 1.77 1.76 1.79 1.79 1.83 1.83 1.86 1.86 1.82 1.77 1.82 1.90 1.90 1.89 1.91 1.93 1.98 2.01 1.93 1.92 1.92 1.96 2.02 2.01 2.03 2.01 2.00 1.98 1.98 1.96 1.96 1.93 1.91 1.93 1.95 1.88 1.93 2.02 2.00 1.93 1.94 1.93 1.95 1.98 2.00 1.95 1.89 1.87 1.84 1.83 1.85 1.87 1.89 1.89 1.91 1.91 1.84 1.80 1.75 1.70 1.65 1.66 1.68 1.65 1.69 1.80 1.80 1.83 1.72 1.80 1.82 1.79 1.77 1.74 1.65 1.63
1.48 1.50 1.55 1.59 1.61 1.66 1.66 1.68 1.71 1.75 1.79 1.76 1.74 1.73 1.74 1.75 1.78 1.80 1.80 1.82 1.83 1.87 1.90 1.85 1.89 1.89 1.90 1.91 1.85 1.76 1.79 1.98 2.00 1.99 1.98 1.99 2.00 1.98 1.97 1.95 1.92 1.90 1.91 1.93 1.94 1.96 1.93 1.89 1.84 1.83 1.90 1.93 1.97 1.94 1.90 1.86 1.83 1.83 1.84 1.85 1.90 1.95 1.98 1.98 1.96 1.94 1.93 1.86 1.80 1.75 1.85 1.89 1.79 1.89 2.04 1.97 1.75 1.65 1.70 1.75 1.85 1.83 1.79 1.69 1.73
1.44 1.45 1.46 1.51 1.56 1.62 1.63 1.70 1.72 1.78 1.78 1.78 1.76 1.74 1.73 1.75 1.77 1.80 1.81 1.83 1.85 1.85 1.86 1.85 1.88 1.87 1.86 1.84 1.79 1.76 1.76 1.83 1.93 1.95 1.94 1.95 1.94 1.93 1.90 1.88 1.85 1.85 1.87 1.87 1.86 1.85 1.90 1.88 1.83 1.82 1.85 1.86 1.88 1.89 1.89 1.87 1.89 1.86 1.81 1.83 1.94 2.03 1.99 1.93 1.91 1.96 1.95 1.96 1.95 1.92 1.91 1.97 1.96 1.97 1.99 2.00 1.93 1.79 1.79 1.77 1.75 1.80 1.83 1.87 1.87
1.39 1.40 1.40 1.45 1.50 1.58 1.65 1.66 1.68 1.69 1.76 1.76 1.75 1.74 1.74 1.75 1.75 1.81 1.82 1.86 1.87 1.86 1.86 1.86 1.82 1.80 1.80 1.77 1.73 1.75 1.81 1.84 1.87 1.90 1.92 1.92 1.94 1.94 1.92 1.86 1.84 1.83 1.82 1.83 1.80 1.80 1.85 1.89 1.86 1.86 1.93 1.95 1.98 1.99 2.00 2.00 1.92 1.87 1.86 1.92 1.90 1.91 1.89 1.93 1.96 1.99 2.00 1.98 1.95 1.90 1.86 1.88 1.89 1.90 1.93 1.97 1.93 1.89 1.94 1.84 1.81 1.78 1.70 1.61 1.54
1.33 1.37 1.40 1.48 1.53 1.60 1.61 1.61 1.62 1.66 1.69 1.68 1.68 1.69 1.71 1.74 1.78 1.83 1.76 1.76 1.75 1.76 1.76 1.76 1.76 1.72 1.71 1.71 1.70 1.71 1.76 1.80 1.80 1.82 1.84 1.85 1.85 1.85 1.82 1.80 1.80 1.79 1.78 1.79 1.79 1.77 1.79 1.84 1.87 1.88 1.89 1.89 1.88 1.88 1.88 1.87 1.81 1.81 1.80 1.77 1.75 1.70 1.67 1.74 1.77 1.76 1.73 1.68 1.68 1.67 1.66 1.65 1.66 1.67 1.71 1.87 1.78 1.88 1.82 1.62 1.50 1.53 1.39 1.27 1.34
1.40 1.42 1.46 1.52 1.58 1.59 1.61 1.62 1.61 1.62 1.64 1.62 1.61 1.64 1.70 1.74 1.73 1.76 1.68 1.67 1.66 1.69 1.71 1.69 1.73 1.70 1.65 1.66 1.69 1.66 1.70 1.77 1.79 1.80 1.83 1.83 1.80 1.73 1.70 1.63 1.61 1.64 1.66 1.68 1.67 1.65 1.68 1.74 1.78 1.80 1.80 1.79 1.77 1.76 1.77 1.76 1.70 1.68 1.64 1.56 1.44 1.34 1.32 1.38 1.39 1.41 1.41 1.38 1.36 1.36 1.37 1.40 1.45 1.53 1.59 1.62 1.63 1.61 1.51 1.35 1.41 1.39 1.24 1.22 1.15
1.39 1.40 1.44 1.54 1.57 1.57 1.60 1.59 1.59 1.58 1.56 1.57 1.57 1.57 1.59 1.61 1.67 1.70 1.69 1.66 1.64 1.69 1.71 1.63 1.60 1.58 1.59 1.61 1.64 1.65 1.67 1.71 1.75 1.74 1.72 1.69 1.65 1.62 1.59 1.55 1.53 1.56 1.59 1.63 1.64 1.62 1.68 1.74 1.73 1.71 1.70 1.69 1.69 1.68 1.65 1.62 1.54 1.45 1.32 1.17 1.03 0.96 1.01 1.07 1.04 1.01 1.01 0.99 1.01 1.06 1.07 1.13 1.20 1.27 1.32 1.38 1.42 1.41 1.40 1.34 1.35 1.23 1.12 1.13 1.15
1.40 1.42 1.45 1.51 1.52 1.55 1.52 1.44 1.45 1.42 1.45 1.46 1.47 1.53 1.57 1.54 1.55 1.54 1.56 1.65 1.68 1.71 1.72 1.66 1.50 1.54 1.51 1.52 1.54 1.58 1.55 1.63 1.67 1.58 1.55 1.50 1.46 1.41 1.40 1.37 1.38 1.40 1.41 1.46 1.45 1.51 1.56 1.57 1.55 1.56 1.56 1.53 1.47 1.41 1.35 1.31 1.23 1.14 1.03 0.91 0.84 0.82 0.94 0.92 0.93 0.92 0.89 0.89 0.90 0.97 1.02 1.10 1.15 1.18 1.22 1.27 1.31 1.33 1.32 1.32 1.32 1.32 1.23 1.21 1.22
1.40 1.41 1.43 1.44 1.47 1.47 1.46 1.42 1.42 1.46 1.49 1.52 1.50 1.49 1.47 1.51 1.52 1.52 1.56 1.52 1.53 1.54 1.55 1.57 1.58 1.56 1.43 1.44 1.42 1.40 1.40 1.38 1.37 1.36 1.31 1.28 1.27 1.26 1.24 1.26 1.26 1.25 1.28 1.32 1.34 1.33 1.36 1.39 1.37 1.34 1.29 1.26 1.23 1.19 1.14 1.09 1.05 0.99 0.95 0.89 0.88 0.90 0.94 0.90 0.91 0.94 0.93 0.94 0.97 1.01 1.05 1.09 1.13 1.17 1.20 1.25 1.29 1.32 1.34 1.36 1.43 1.49 1.46 1.37 1.31
1.33 1.32 1.32 1.31 1.32 1.34 1.35 1.40 1.41 1.43 1.45 1.41 1.38 1.34 1.43 1.44 1.41 1.39 1.38 1.34 1.31 1.30 1.31 1.32 1.30 1.29 1.32 1.31 1.23 1.30 1.37 1.36 1.33 1.33 1.29 1.24 1.22 1.22 1.21 1.23 1.23 1.18 1.17 1.20 1.24 1.28 1.27 1.28 1.24 1.21 1.18 1.15 1.12 1.10 1.07 1.04 1.01 0.98 0.97 0.96 0.98 0.99 0.98 1.00 1.00 0.99 0.99 1.01 1.01 1.01 1.03 1.07 1.10 1.13 1.17 1.19 1.20 1.24 1.27 1.30 1.33 1.40 1.44 1.43 1.33
1.22 1.23 1.25 1.25 1.27 1.30 1.34 1.36 1.39 1.39 1.41 1.37 1.35 1.33 1.35 1.31 1.28 1.27 1.23 1.22 1.21 1.20 1.22 1.23 1.25 1.29 1.36 1.45 1.48 1.51 1.50 1.46 1.40 1.34 1.29 1.21 1.19 1.20 1.21 1.21 1.21 1.20 1.12 1.05 1.05 1.06 1.13 1.18 1.19 1.17 1.15 1.13 1.11 1.08 1.07 1.05 1.03 1.02 1.02 1.03 1.05 1.06 1.06 1.07 1.06 1.04 1.03 1.03 1.03 1.00 1.01 1.03 1.01 1.04 1.07 1.08 1.14 1.18 1.20 1.24 1.27 1.29 1.30 1.33 1.38
1.24 1.27 1.29 1.33 1.35 1.37 1.37 1.39 1.42 1.44 1.44 1.40 1.35 1.38 1.34 1.30 1.28 1.29 1.27 1.33 1.33 1.33 1.38 1.42 1.41 1.40 1.40 1.44 1.49 1.53 1.57 1.54 1.50 1.42 1.33 1.27 1.19 1.16 1.14 1.13 1.11 1.09 1.07 1.05 1.10 1.12 1.12 1.14 1.13 1.11 1.07 1.06 1.05 1.04 1.03 1.05 1.06 1.07 1.07 1.08 1.09 1.11 1.11 1.08 1.07 1.03 1.01 1.01 0.98 0.96 0.96 1.00 1.00 1.00 1.02 1.06 1.09 1.13 1.17 1.22 1.23 1.24 1.23 1.23 1.26
1.35 1.32 1.30 1.28 1.29 1.32 1.38 1.37 1.36 1.39 1.38 1.38 1.33 1.30 1.31 1.36 1.38 1.40 1.37 1.34 1.33 1.31 1.36 1.38 1.37 1.39 1.43 1.42 1.47 1.53 1.60 1.60 1.58 1.57 1.51 1.43 1.34 1.26 1.21 1.21 1.20 1.19 1.17 1.20 1.21 1.20 1.20 1.18 1.15 1.11 1.09 1.05 1.04 1.03 1.04 1.06 1.07 1.07 1.08 1.09 1.11 1.12 1.10 1.10 1.06 1.04 0.98 0.95 0.94 0.95 0.96 0.98 1.00 1.03 1.07 1.10 1.14 1.18 1.18 1.19 1.20 1.20 1.21 1.20 1.21
1.28 1.22 1.22 1.26 1.26 1.26 1.24 1.27 1.32 1.36 1.33 1.37 1.36 1.35 1.34 1.35 1.32 1.41 1.39 1.38 1.41 1.44 1.42 1.42 1.42 1.42 1.44 1.46 1.49 1.52 1.56 1.59 1.62 1.63 1.62 1.58 1.55 1.49 1.45 1.41 1.38 1.35 1.33 1.34 1.32 1.29 1.26 1.23 1.21 1.18 1.16 1.14 1.11 1.11 1.09 1.13 1.14 1.15 1.14 1.15 1.15 1.15 1.14 1.10 1.08 1.03 0.99 0.96 0.95 0.94 0.96 0.99 1.00 1.05 1.11 1.14 1.11 1.11 1.12 1.10 1.10 1.10 1.12 1.11 1.10
1.25 1.26 1.26 1.31 1.32 1.30 1.24 1.25 1.27 1.32 1.33 1.37 1.39 1.39 1.37 1.36 1.35 1.36 1.38 1.36 1.37 1.37 1.41 1.42 1.43 1.44 1.43 1.45 1.48 1.48 1.48 1.51 1.54 1.57 1.59 1.58 1.56 1.52 1.47 1.45 1.44 1.43 1.41 1.40 1.38 1.35 1.34 1.31 1.27 1.25 1.24 1.24 1.23 1.21 1.21 1.24 1.23 1.21 1.19 1.19 1.19 1.18 1.18 1.13 1.09 1.06 1.06 1.00 0.97 1.01 1.05 1.08 1.10 1.10 1.07 1.06 1.07 1.10 1.14 1.11 1.09 1.08 1.09 1.08 1.04
1.33 1.35 1.34 1.30 1.34 1.32 1.28 1.28 1.31 1.33 1.31 1.33 1.37 1.34 1.35 1.35 1.32 1.38 1.38 1.33 1.27 1.27 1.24 1.25 1.26 1.29 1.30 1.32 1.34 1.35 1.38 1.39 1.40 1.40 1.40 1.40 1.40 1.41 1.41 1.38 1.34 1.34 1.32 1.30 1.27 1.26 1.24 1.24 1.24 1.27 1.31 1.31 1.30 1.29 1.28 1.29 1.29 1.27 1.24 1.25 1.24 1.23 1.21 1.21 1.20 1.17 1.19 1.17 1.13 1.11 1.13 1.15 1.10 1.08 1.08 1.07 1.08 1.10 1.16 1.14 1.11 1.09 1.10 1.07 1.01
1.35 1.34 1.32 1.30 1.30 1.35 1.31 1.31 1.36 1.38 1.39 1.38 1.40 1.38 1.35 1.34 1.39 1.40 1.41 1.38 1.31 1.23 1.22 1.22 1.22 1.27 1.28 1.25 1.21 1.22 1.27 1.27 1.30 1.34 1.33 1.31 1.29 1.28 1.28 1.28 1.30 1.31 1.30 1.27 1.25 1.23 1.22 1.20 1.23 1.29 1.31 1.28 1.26 1.27 1.27 1.28 1.30 1.29 1.28 1.30 1.28 1.26 1.28 1.27 1.19 1.18 1.21 1.19 1.15 1.14 1.13 1.18 1.17 1.14 1.11 1.10 1.11 1.14 1.21 1.17 1.17 1.11 1.10 1.09 1.00
1.31 1.29 1.32 1.32 1.35 1.34 1.33 1.36 1.39 1.41 1.35 1.38 1.39 1.40 1.42 1.37 1.32 1.33 1.29 1.31 1.31 1.31 1.29 1.24 1.26 1.27 1.27 1.28 1.28 1.20 1.17 1.21 1.26 1.26 1.25 1.25 1.26 1.27 1.28 1.30 1.30 1.28 1.26 1.24 1.21 1.14 1.13 1.14 1.23 1.29 1.30 1.31 1.27 1.25 1.25 1.23 1.25 1.25 1.24 1.29 1.30 1.35 1.35 1.26 1.25 1.25 1.23 1.20 1.18 1.15 1.14 1.15 1.13 1.13 1.13 1.11 1.12 1.15 1.18 1.15 1.13 1.12 1.08 1.05 1.01
1.22 1.34 1.35 1.41 1.41 1.39 1.33 1.42 1.49 1.44 1.44 1.46 1.46 1.38 1.35 1.36 1.40 1.40 1.40 1.39 1.38 1.33 1.30 1.29 1.30 1.29 1.27 1.23 1.26 1.29 1.28 1.28 1.27 1.27 1.26 1.27 1.27 1.28 1.28 1.28 1.27 1.25 1.24 1.20 1.15 1.12 1.14 1.19 1.25 1.29 1.32 1.27 1.23 1.22 1.22 1.21 1.21 1.21 1.22 1.25 1.28 1.30 1.32 1.31 1.29 1.30 1.26 1.23 1.21 1.17 1.15 1.14 1.14 1.16 1.14 1.12 1.11 1.13 1.14 1.16 1.15 1.14 1.11 1.09 1.05
1.38 1.38 1.44 1.40 1.44 1.50 1.49 1.46 1.39 1.47 1.45 1.45 1.44 1.44 1.44 1.39 1.43 1.50 1.50 1.48 1.45 1.44 1.43 1.40 1.38 1.38 1.38 1.36 1.33 1.31 1.34 1.33 1.31 1.30 1.29 1.29 1.30 1.30 1.28 1.27 1.26 1.24 1.23 1.21 1.11 1.11 1.19 1.21 1.23 1.25 1.23 1.22 1.23 1.23 1.24 1.23 1.24 1.25 1.26 1.25 1.26 1.29 1.32 1.29 1.32 1.30 1.28 1.27 1.22 1.16 1.17 1.17 1.18 1.19 1.17 1.16 1.15 1.14 1.13 1.12 1.11 1.10 1.12 1.12 1.09
1.56 1.55 1.51 1.48 1.47 1.44 1.41 1.47 1.48 1.51 1.48 1.47 1.49 1.48 1.43 1.45 1.45 1.43 1.51 1.55 1.53 1.50 1.49 1.48 1.49 1.48 1.48 1.45 1.42 1.37 1.36 1.36 1.35 1.33 1.33 1.32 1.33 1.33 1.32 1.31 1.29 1.26 1.24 1.19 1.15 1.14 1.17 1.20 1.18 1.19 1.20 1.19 1.21 1.23 1.25 1.26 1.27 1.27 1.28 1.26 1.25 1.27 1.31 1.34 1.34 1.32 1.30 1.28 1.21 1.19 1.20 1.21 1.21 1.18 1.18 1.16 1.15 1.13 1.13 1.10 1.09 1.10 1.11 1.07 1.06
1.64 1.62 1.58 1.57 1.57 1.51 1.56 1.54 1.52 1.51 1.52 1.49 1.47 1.47 1.46 1.46 1.43 1.41 1.41 1.43 1.49 1.52 1.56 1.55 1.53 1.54 1.53 1.51 1.48 1.45 1.42 1.40 1.38 1.37 1.37 1.37 1.36 1.36 1.34 1.34 1.33 1.32 1.27 1.21 1.20 1.17 1.19 1.20 1.20 1.21 1.23 1.24 1.25 1.25 1.25 1.26 1.26 1.26 1.26 1.25 1.25 1.26 1.28 1.30 1.28 1.27 1.26 1.26 1.23 1.18 1.18 1.21 1.20 1.15 1.13 1.13 1.14 1.16 1.13 1.10 1.08 1.03 1.04 1.02 0.97
1.62 1.52 1.54 1.56 1.54 1.55 1.55 1.57 1.54 1.51 1.51 1.50 1.50 1.46 1.46 1.46 1.46 1.41 1.41 1.41 1.39 1.36 1.41 1.50 1.54 1.53 1.50 1.48 1.48 1.47 1.46 1.45 1.44 1.43 1.42 1.42 1.41 1.39 1.38 1.34 1.30 1.31 1.31 1.30 1.28 1.26 1.25 1.27 1.24 1.25 1.25 1.24 1.26 1.27 1.27 1.29 1.29 1.28 1.28 1.27 1.27 1.27 1.27 1.25 1.21 1.20 1.20 1.21 1.18 1.18 1.18 1.19 1.19 1.17 1.11 1.08 1.08 1.10 1.10 1.09 1.07 1.04 1.01 1.02 1.01
1.55 1.56 1.58 1.55 1.56 1.52 1.52 1.53 1.50 1.46 1.42 1.44 1.44 1.44 1.44 1.43 1.40 1.42 1.44 1.47 1.45 1.41 1.42 1.48 1.49 1.48 1.45 1.43 1.44 1.44 1.45 1.45 1.43 1.42 1.40 1.39 1.39 1.39 1.31 1.29 1.27 1.30 1.32 1.34 1.32 1.33 1.35 1.35 1.32 1.34 1.35 1.35 1.35 1.35 1.37 1.37 1.38 1.38 1.38 1.34 1.31 1.31 1.30 1.29 1.26 1.23 1.22 1.19 1.16 1.18 1.19 1.18 1.19 1.16 1.16 1.13 1.08 1.08 1.11 1.13 1.10 1.08 1.07 1.05 1.02
1.54 1.54 1.54 1.54 1.53 1.50 1.46 1.48 1.46 1.37 1.39 1.40 1.45 1.45 1.43 1.43 1.46 1.46 1.46 1.45 1.42 1.41 1.41 1.41 1.44 1.46 1.49 1.50 1.49 1.48 1.48 1.45 1.43 1.41 1.41 1.40 1.40 1.38 1.33 1.30 1.29 1.30 1.31 1.32 1.32 1.31 1.29 1.33 1.35 1.37 1.38 1.38 1.39 1.40 1.40 1.41 1.43 1.42 1.42 1.44 1.42 1.39 1.37 1.36 1.35 1.32 1.30 1.27 1.25 1.27 1.27 1.25 1.24 1.24 1.19 1.16 1.11 1.08 1.06 1.04 1.07 1.11 1.09 1.08 1.05
1.42 1.41 1.41 1.44 1.41 1.49 1.48 1.49 1.47 1.45 1.45 1.44 1.48 1.46 1.47 1.46 1.45 1.47 1.42 1.39 1.39 1.37 1.34 1.38 1.41 1.37 1.32 1.38 1.48 1.44 1.41 1.40 1.40 1.39 1.39 1.41 1.40 1.35 1.34 1.35 1.36 1.33 1.33 1.34 1.34 1.32 1.30 1.33 1.35 1.35 1.40 1.43 1.41 1.40 1.40 1.41 1.42 1.42 1.44 1.45 1.46 1.43 1.41 1.40 1.40 1.38 1.37 1.36 1.35 1.34 1.33 1.31 1.29 1.26 1.25 1.18 1.09 1.06 1.06 1.05 1.06 1.09 1.07 1.07 1.07
1.48 1.40 1.35 1.36 1.38 1.38 1.41 1.40 1.40 1.40 1.42 1.43 1.46 1.46 1.45 1.42 1.39 1.38 1.38 1.34 1.33 1.33 1.33 1.34 1.33 1.30 1.30 1.32 1.30 1.34 1.33 1.29 1.28 1.32 1.33 1.36 1.37 1.35 1.32 1.32 1.32 1.32 1.30 1.30 1.36 1.37 1.37 1.34 1.34 1.35 1.35 1.34 1.35 1.37 1.38 1.38 1.39 1.41 1.42 1.41 1.43 1.44 1.40 1.38 1.37 1.36 1.35 1.34 1.35 1.36 1.34 1.28 1.26 1.27 1.24 1.18 1.14 1.11 1.05 1.03 1.03 1.00 0.98 1.00 1.02
1.44 1.42 1.37 1.36 1.37 1.39 1.38 1.39 1.41 1.40 1.41 1.39 1.38 1.37 1.36 1.34 1.33 1.33 1.33 1.30 1.28 1.29 1.29 1.26 1.23 1.24 1.27 1.28 1.25 1.25 1.21 1.20 1.20 1.20 1.21 1.21 1.20 1.21 1.21 1.18 1.18 1.16 1.15 1.17 1.21 1.24 1.25 1.27 1.30 1.27 1.26 1.26 1.28 1.29 1.32 1.32 1.32 1.34 1.34 1.32 1.31 1.30 1.33 1.34 1.33 1.32 1.30 1.30 1.28 1.28 1.27 1.26 1.24 1.22 1.22 1.19 1.16 1.12 1.08 1.05 1.03 0.98 0.94 0.93 0.94
1.46 1.47 1.45 1.41 1.41 1.43 1.44 1.43 1.41 1.40 1.38 1.35 1.32 1.31 1.28 1.30 1.31 1.31 1.29 1.27 1.25 1.26 1.25 1.22 1.21 1.23 1.24 1.21 1.20 1.17 1.15 1.11 1.11 1.11 1.10 1.09 1.10 1.10 1.10 1.11 1.12 1.10 1.11 1.12 1.14 1.15 1.16 1.17 1.20 1.22 1.21 1.21 1.23 1.23 1.23 1.23 1.23 1.23 1.22 1.22 1.22 1.22 1.23 1.24 1.24 1.24 1.25 1.25 1.25 1.25 1.26 1.25 1.23 1.20 1.13 1.11 1.10 1.07 1.07 1.06 1.01 1.02 1.02 1.00 0.98
1.47 1.46 1.45 1.43 1.43 1.39 1.35 1.33 1.33 1.33 1.33 1.32 1.31 1.29 1.29 1.27 1.27 1.25 1.23 1.20 1.18 1.18 1.17 1.16 1.14 1.14 1.12 1.10 1.10 1.11 1.10 1.08 1.08 1.07 1.07 1.07 1.07 1.07 1.07 1.09 1.11 1.11 1.10 1.09 1.10 1.11 1.12 1.12 1.13 1.13 1.13 1.13 1.13 1.13 1.14 1.14 1.14 1.13 1.13 1.13 1.13 1.14 1.14 1.15 1.16 1.17 1.17 1.18 1.20 1.22 1.23 1.22 1.21 1.18 1.17 1.14 1.12 1.12 1.10 1.09 1.07 1.05 1.02 1.00 0.96
1.41 1.41 1.37 1.36 1.34 1.31 1.28 1.30 1.31 1.29 1.27 1.24 1.22 1.21 1.20 1.18 1.16 1.15 1.11 1.09 1.08 1.07 1.05 1.04 1.04 1.06 1.04 1.03 1.04 1.06 1.05 1.04 1.02 1.01 1.02 1.02 1.02 1.03 1.03 1.04 1.06 1.08 1.07 1.07 1.09 1.09 1.08 1.07 1.07 1.07 1.06 1.06 1.05 1.04 1.03 1.02 1.03 1.02 1.01 1.01 1.01 1.01 1.01 1.03 1.05 1.06 1.09 1.11 1.13 1.15 1.16 1.18 1.19 1.18 1.16 1.16 1.16 1.13 1.12 1.09 1.04 1.00 1.00 1.00 0.99
1.35 1.32 1.30 1.29 1.29 1.27 1.26 1.26 1.22 1.20 1.18 1.16 1.12 1.10 1.08 1.07 1.05 1.04 1.01 0.99 0.98 0.99 0.98 0.97 0.97 0.97 0.97 0.98 0.98 0.97 0.97 0.96 0.95 0.95 0.94 0.94 0.93 0.93 0.95 0.97 0.99 1.00 1.00 1.00 1.01 1.01 1.01 0.99 0.98 0.99 0.99 0.97 0.97 0.96 0.95 0.95 0.93 0.91 0.90 0.91 0.92 0.93 0.93 0.94 0.95 0.97 1.00 1.04 1.07 1.08 1.10 1.13 1.17 1.18 1.16 1.15 1.15 1.12 1.11 1.10 1.09 1.06 1.05 1.03 1.01
1.26 1.20 1.17 1.15 1.13 1.13 1.13 1.13 1.12 1.11 1.09 1.07 1.02 0.98 0.96 0.94 0.92 0.91 0.91 0.91 0.91 0.90 0.91 0.91 0.91 0.90 0.90 0.90 0.89 0.89 0.89 0.90 0.89 0.89 0.89 0.89 0.88 0.89 0.90 0.91 0.93 0.93 0.93 0.93 0.94 0.93 0.92 0.92 0.91 0.91 0.91 0.91 0.90 0.89 0.88 0.85 0.86 0.85 0.84 0.82 0.80 0.80 0.81 0.82 0.84 0.86 0.89 0.91 0.94 0.98 1.02 1.07 1.10 1.13 1.14 1.15 1.15 1.15 1.13 1.13 1.11 1.10 1.07 1.05 1.03
1.15 1.13 1.11 1.08 1.06 1.03 1.02 1.01 1.01 1.00 0.98 0.95 0.93 0.91 0.92 0.91 0.89 0.88 0.86 0.85 0.84 0.84 0.85 0.85 0.86 0.86 0.86 0.85 0.85 0.85 0.85 0.85 0.85 0.85 0.85 0.85 0.85 0.85 0.86 0.85 0.86 0.86 0.86 0.86 0.87 0.87 0.86 0.85 0.84 0.83 0.83 0.84 0.85 0.83 0.81 0.81 0.79 0.80 0.80 0.77 0.73 0.72 0.73 0.73 0.75 0.76 0.77 0.79 0.81 0.84 0.87 0.93 1.02 1.08 1.11 1.09 1.11 1.13 1.12 1.13 1.13 1.12 1.09 1.06 1.04
1.10 1.06 1.05 1.05 1.03 1.01 0.98 0.97 0.92 0.92 0.92 0.90 0.90 0.89 0.89 0.89 0.88 0.88 0.87 0.83 0.81 0.80 0.80 0.80 0.80 0.79 0.78 0.77 0.76 0.76 0.76 0.77 0.77 0.77 0.77 0.77 0.76 0.76 0.75 0.75 0.73 0.71 0.74 0.75 0.74 0.72 0.72 0.73 0.74 0.75 0.73 0.74 0.76 0.74 0.73 0.75 0.75 0.72 0.71 0.67 0.66 0.65 0.65 0.65 0.66 0.67 0.68 0.69 0.72 0.73 0.77 0.82 0.88 0.94 0.98 1.00 1.03 1.05 1.06 1.06 1.07 1.06 1.07 1.06 1.03
1.03 0.99 0.98 0.96 0.99 0.97 0.95 0.93 0.91 0.92 0.91 0.90 0.88 0.85 0.84 0.82 0.81 0.81 0.80 0.79 0.77 0.73 0.70 0.70 0.68 0.66 0.64 0.64 0.62 0.60 0.60 0.63 0.66 0.67 0.67 0.66 0.64 0.65 0.64 0.65 0.64 0.62 0.65 0.65 0.65 0.65 0.63 0.63 0.63 0.66 0.65 0.64 0.65 0.64 0.65 0.65 0.61 0.59 0.58 0.57 0.56 0.55 0.55 0.56 0.57 0.58 0.58 0.58 0.61 0.64 0.67 0.72 0.77 0.83 0.86 0.90 0.93 0.99 1.03 1.06 1.09 1.11 1.11 1.10 1.09
0.99 0.96 0.93 0.92 0.91 0.90 0.88 0.86 0.85 0.83 0.83 0.84 0.83 0.80 0.76 0.74 0.72 0.70 0.68 0.66 0.66 0.64 0.62 0.58 0.58 0.58 0.57 0.57 0.55 0.54 0.54 0.55 0.57 0.58 0.60 0.60 0.60 0.60 0.60 0.60 0.60 0.60 0.61 0.60 0.60 0.60 0.60 0.60 0.59 0.60 0.60 0.58 0.58 0.56 0.52 0.50 0.50 0.51 0.51 0.49 0.49 0.48 0.48 0.47 0.46 0.47 0.47 0.47 0.50 0.54 0.59 0.63 0.67 0.72 0.74 0.76 0.76 0.78 0.81 0.89 0.96 1.00 1.04 1.06 1.05
0.90 0.88 0.86 0.84 0.82 0.82 0.81 0.78 0.74 0.71 0.68 0.67 0.68 0.65 0.63 0.61 0.62 0.60 0.58 0.57 0.57 0.57 0.56 0.57 0.56 0.55 0.55 0.54 0.53 0.53 0.51 0.50 0.51 0.53 0.54 0.56 0.56 0.56 0.56 0.55 0.55 0.53 0.56 0.57 0.57 0.58 0.58 0.57 0.58 0.58 0.57 0.56 0.53 0.52 0.51 0.49 0.48 0.47 0.46 0.44 0.44 0.43 0.43 0.43 0.42 0.42 0.42 0.42 0.43 0.46 0.51 0.54 0.57 0.60 0.62 0.63 0.64 0.64 0.63 0.67 0.74 0.82 0.87 0.90 0.92
0.81 0.77 0.74 0.71 0.71 0.70 0.69 0.68 0.68 0.66 0.63 0.59 0.60 0.59 0.60 0.58 0.53 0.53 0.51 0.49 0.54 0.55 0.53 0.52 0.52 0.51 0.51 0.52 0.52 0.52 0.51 0.49 0.48 0.48 0.51 0.52 0.51 0.51 0.51 0.51 0.52 0.50 0.52 0.55 0.56 0.56 0.57 0.58 0.59 0.59 0.57 0.56 0.54 0.53 0.52 0.50 0.48 0.48 0.47 0.45 0.43 0.41 0.40 0.39 0.38 0.37 0.38 0.38 0.40 0.45 0.49 0.50 0.53 0.54 0.53 0.54 0.55 0.54 0.52 0.54 0.60 0.63 0.66 0.71 0.79
Wind_Speed
16 16 16 16 16 16 16 16 16 16 16 16 15 15 15 15 16 15 15 15 15 15 15 14 14 14 15 15 16 17 17 17 18 18 18 18 19 19 19 19 19 19 20 20 21 20 20 20 20 20 20 20 19 19 19 19 19 19 20 20 20 20 20 20 19 19 20 19 19 19 19 19 20 20 20 20 20 20 21 20 19 19 18 19 19
17 17 17 17 17 17 17 16 16 17 16 16 16 16 16 16 16 16 16 16 15 15 15 15 15 15 15 15 16 16 17 17 18 18 18 18 19 19 19 19 20 20 20 20 21 21 21 21 21 20 20 20 20 20 20 20 20 20 20 20 20 20 20 20 19 19 20 20 20 20 20 19 20 21 21 21 21 21 21 20 20 20 20 19 19
17 16 17 17 17 17 16 16 17 17 17 16 16 16 16 16 16 16 16 16 16 15 15 15 16 16 16 16 16 16 17 17 18 18 19 19 19 19 19 19 20 20 21 21 21 21 22 22 22 21 21 21 21 21 20 20 20 20 20 20 20 20 20 20 19 20 20 20 21 21 21 21 21 21 22 22 21 21 22 22 22 21 20 20 20
17 18 18 18 17 16 16 16 17 17 17 17 17 17 17 17 16 16 16 16 16 16 16 16 16 16 16 16 17 17 17 17 18 18 19 19 20 19 19 20 20 20 20 21 21 22 22 23 23 22 22 22 22 21 21 21 21 21 21 20 20 21 21 20 21 21 21 21 22 22 22 22 23 22 22 22 23 23 23 23 23 22 22 21 20
19 19 19 18 17 16 16 17 17 17 17 17 17 18 18 17 17 17 17 17 16 16 16 16 16 15 15 16 16 17 18 19 19 19 19 19 19 20 20 20 20 21 21 21 21 21 22 22 23 23 23 22 22 22 22 22 22 21 21 21 21 21 22 22 22 22 22 23 23 23 23 23 23 23 23 24 24 24 24 23 23 23 23 23 22
20 20 19 18 17 16 16 16 16 16 15 16 17 18 18 18 18 17 17 17 16 16 16 16 16 15 15 16 16 17 18 19 20 20 20 20 19 20 20 20 20 21 21 21 21 21 21 22 22 23 23 23 23 22 22 22 22 22 22 22 21 22 22 22 22 23 23 23 24 24 25 25 24 25 25 25 25 25 25 25 24 24 25 25 25
17 16 14 13 13 13 13 13 13 13 14 15 16 17 17 18 18 17 16 16 16 16 16 16 16 16 16 16 17 17 17 18 19 20 21 21 21 21 21 21 21 21 22 22 23 23 23 23 23 23 23 23 23 22 22 22 22 22 22 22 22 22 23 23 23 24 24 24 25 25 26 26 26 26 26 26 26 26 26 25 25 26 26 26 26
12 11 11 12 12 12 12 12 13 13 14 15 15 16 17 17 17 16 15 15 16 16 16 16 17 17 17 17 17 17 17 17 18 19 20 21 22 22 22 22 22 23 23 23 23 24 24 24 24 25 24 23 23 23 23 23 23 23 23 23 23 24 24 24 24 25 25 25 26 26 26 26 27 27 27 27 27 27 27 27 27 27 27 27 27
10 11 11 11 12 12 12 12 12 13 13 14 14 15 15 16 16 15 15 15 15 15 16 16 17 17 18 17 17 17 17 17 17 18 19 20 21 22 23 24 24 24 24 24 24 25 24 24 24 24 24 24 24 23 23 23 23 23 23 24 24 25 25 25 25 26 26 27 27 27 27 27 28 28 28 28 28 29 28 28 28 28 27 27 28
10 11 11 11 11 12 12 11 12 12 12 12 13 13 13 13 14 14 14 14 14 15 15 16 16 17 17 17 18 18 18 18 18 18 19 19 19 20 21 22 23 24 24 24 24 25 25 25 25 25 25 25 24 24 24 24 24 24 24 25 25 25 26 26 26 27 27 28 28 28 28 28 28 29 29 29 30 29 29 29 29 29 28 28 28
9 10 10 10 10 11 11 10 11 11 10 10 11 11 11 11 12 13 13 13 14 14 14 15 15 16 16 17 17 17 17 17 18 18 19 19 19 19 19 20 21 22 23 23 24 24 24 24 24 24 24 24 24 24 24 24 24 25 26 26 27 27 27 27 27 28 28 28 29 29 29 29 29 29 30 30 29 29 29 30 30 29 28 28 29
8 8 8 8 8 8 8 8 8 8 8 8 9 9 10 10 11 12 12 12 12 13 13 13 13 13 14 15 15 15 16 16 16 17 17 18 18 19 19 19 20 20 21 22 22 23 23 23 23 24 24 24 24 24 25 25 25 26 27 27 28 28 28 28 29 29 29 29 29 29 29 30 29 29 30 29 28 28 29 30 29 29 29 29 30
6 6 6 6 6 6 6 6 6 6 6 6 7 7 8 8 9 9 10 11 11 12 12 12 12 12 12 13 13 13 14 14 14 14 15 16 17 17 18 18 18 19 19 20 21 21 22 22 23 24 25 25 25 25 25 26 27 27 27 27 27 28 28 29 29 29 30 30 30 29 30 30 30 30 29 28 28 28 29 29 29 29 28 29 30
4 4 4 5 5 5 5 4 5 5 5 5 6 6 7 7 8 8 9 10 10 11 11 11 11 11 11 12 12 12 12 12 13 13 13 13 14 15 16 16 17 17 18 18 18 19 20 21 22 23 24 24 25 25 26 26 27 27 27 27 27 27 27 27 28 28 29 29 29 29 29 30 30 29 29 28 27 28 28 28 28 28 28 28 28
4 4 4 4 4 4 4 4 4 5 5 5 5 6 7 7 8 8 9 9 10 10 10 10 10 11 11 11 12 12 11 11 12 12 13 13 13 14 14 15 16 16 17 17 18 18 18 19 20 20 21 22 23 23 24 24 24 25 25 25 25 25 25 26 26 27 27 27 28 28 28 29 29 29 28 27 27 27 27 26 27 27 27 27 27
3 3 3 4 4 4 4 4 4 4 4 5 5 6 6 6 7 8 8 9 9 9 9 9 10 10 10 11 11 11 11 11 12 12 13 13 14 14 14 15 15 16 17 17 17 18 18 18 18 18 18 19 19 20 21 21 21 22 22 23 24 24 24 25 25 26 25 25 25 25 26 27 28 28 28 26 26 26 25 24 25 25 26 26 26
2 2 3 3 3 3 3 3 3 4 4 5 5 5 6 6 7 7 7 8 8 8 8 9 9 10 10 10 10 11 11 11 12 12 12 12 13 14 14 15 15 16 16 16 16 16 17 17 17 17 17 17 18 18 19 19 20 20 21 22 22 23 24 24 25 25 25 25 26 26 27 28 28 27 26 25 25 24 23 23 24 24 24 24 25
1 1 1 2 2 2 2 3 3 3 3 4 4 5 5 5 6 6 7 7 7 8 8 8 9 9 10 10 10 10 11 11 11 11 11 12 13 13 14 14 15 15 15 16 16 16 16 17 17 17 17 17 17 18 18 19 19 20 21 21 22 23 23 24 24 24 25 26 26 27 27 27 27 27 26 25 25 24 23 24 24 24 24 24 24
0 0 0 1 1 1 1 2 2 2 3 3 4 4 5 5 5 6 6 7 7 8 8 8 9 9 9 9 9 10 10 10 10 10 11 12 13 13 13 14 14 15 15 16 16 16 16 16 16 16 16 16 16 17 17 18 19 20 20 21 22 22 22 22 23 24 24 25 25 25 25 25 25 25 24 24 23 22 23 23 23 23 23 23 23
1 1 1 1 1 1 1 1 1 2 3 3 3 4 4 4 5 5 6 6 7 8 8 8 8 8 8 8 9 9 10 10 10 10 11 12 13 14 14 14 14 14 15 15 16 16 15 15 15 15 15 16 17 17 18 19 19 20 20 20 21 21 21 22 23 23 23 23 23 23 22 22 22 21 21 21 21 21 21 22 22 23 23 23 23
2 2 2 1 1 1 0 1 1 2 2 3 3 3 4 4 4 5 5 6 6 7 7 8 8 8 8 8 9 9 9 10 11 11 12 13 13 14 14 14 14 15 15 15 15 15 15 15 16 16 16 17 17 18 18 19 19 19 19 19 20 20 20 20 21 21 21 21 21 20 20 20 20 19 19 20 20 20 21 21 22 22 23 23 24
3 3 2 2 1 1 0 1 1 2 2 3 3 4 4 5 5 5 6 6 7 7 8 8 8 8 9 9 9 9 10 10 11 12 12 12 13 13 13 13 14 15 15 16 16 15 15 16 16 17 17 18 18 18 18 19 19 19 19 19 19 19 19 20 20 20 20 20 20 19 19 19 19 19 19 19 20 21 21 22 22 23 23 24 24
4 3 3 2 1 1 1 1 2 3 3 4 4 4 5 5 6 6 7 7 7 7 7 8 8 9 9 10 10 10 10 11 11 12 12 12 12 12 12 13 13 14 15 15 16 16 16 16 17 17 18 19 19 19 19 19 19 19 19 19 19 19 20 20 20 20 20 20 20 20 20 20 20 20 20 21 21 22 22 23 23 24 25 25 26
3 3 2 2 1 1 1 2 3 3 3 4 4 5 5 5 5 6 6 7 7 8 8 8 9 9 10 10 10 11 11 12 12 12 12 12 12 12 12 13 14 14 14 15 15 16 16 17 17 18 19 20 20 20 20 19 19 19 20 20 20 20 20 20 20 21 21 21 21 21 21 21 21 21 21 22 22 22 22 23 23 24 25 25 26
2 1 1 1 1 2 2 3 4 4 4 4 5 5 5 5 5 6 6 7 8 8 9 9 10 10 11 11 11 11 11 12 12 12 12 12 12 12 13 14 15 15 15 16 16 17 17 18 18 19 19 20 19 19 19 19 19 19 20 20 19 19 20 20 20 21 21 21 21 21 22 22 22 22 22 22 22 22 23 23 24 24 25 25 25
0 0 1 2 2 3 3 4 4 4 5 5 5 5 5 6 6 6 7 8 9 9 10 10 11 11 11 11 11 12 12 12 13 13 13 13 13 14 14 15 16 16 17 17 18 18 19 19 20 20 20 20 19 19 19 19 19 19 19 19 19 20 20 20 20 20 20 20 21 21 22 22 22 22 22 22 22 22 23 24 24 24 24 24 24
1 2 2 3 4 4 4 5 5 6 6 6 6 6 6 7 7 8 8 9 10 10 10 11 12 12 12 12 12 12 12 12 13 13 14 14 14 15 16 17 17 17 17 18 19 20 20 21 21 21 21 20 20 20 21 21 21 21 21 21 21 21 21 21 21 21 21 21 21 21 22 22 22 23 23 22 22 23 23 24 24 24 24 25 24
3 4 4 5 6 6 6 7 7 8 8 8 8 7 7 8 8 8 9 11 11 11 12 12 12 13 13 13 13 13 13 13 14 15 15 16 16 17 17 17 18 18 18 19 20 20 21 21 21 21 20 20 21 21 22 22 22 22 22 22 22 23 23 22 21 21 22 22 22 23 23 23 23 24 24 23 23 23 24 24 24 25 25 25 24
4 5 6 6 7 8 8 9 9 9 9 9 9 9 9 10 10 10 11 12 13 13 14 14 14 14 14 15 15 15 15 16 16 17 17 18 18 18 18 18 19 19 20 21 21 21 21 21 20 20 20 21 22 22 22 22 22 22 22 22 23 23 22 21 21 21 22 23 24 24 24 24 24 24 24 24 24 24 24 24 25 25 25 25 24
6 7 8 8 9 10 10 11 11 11 11 10 10 11 11 12 12 12 13 14 14 14 15 15 16 16 16 16 17 17 17 17 18 18 18 18 18 18 18 19 20 20 21 22 22 21 21 20 20 20 21 22 22 22 22 22 22 22 22 22 22 22 21 21 21 22 23 24 25 25 24 24 24 24 24 24 24 24 24 25 25 25 25 25 24
8 9 9 10 11 11 12 12 12 13 13 12 11 12 13 13 13 14 14 14 15 15 15 15 16 17 17 17 18 18 17 17 18 18 18 19 19 19 19 20 20 21 21 21 21 21 20 20 20 21 22 22 22 22 22 22 22 22 22 22 22 23 22 22 23 24 25 25 26 25 25 25 25 25 25 24 24 24 24 24 25 25 25 25 24
9 10 11 11 12 12 12 13 13 14 14 13 13 14 14 15 15 15 15 15 16 16 16 16 16 17 17 17 18 18 17 18 18 18 19 19 19 19 20 20 21 21 21 21 21 20 20 20 21 22 22 22 22 22 22 22 22 22 22 22 23 24 24 24 24 25 25 25 25 25 25 25 26 26 25 25 25 25 25 25 25 24 24 24 24
11 11 12 12 13 14 14 15 15 14 14 14 15 15 16 16 16 16 17 17 17 16 16 16 17 17 17 17 17 18 18 18 19 19 19 20 20 20 20 21 21 20 20 20 20 20 20 20 21 22 22 22 22 22 22 22 22 22 22 22 23 23 24 24 24 24 24 24 25 25 25 25 26 26 26 26 25 25 24 24 24 24 24 24 24
12 13 13 13 14 15 15 15 16 15 15 15 16 16 16 17 17 17 17 18 18 17 17 17 17 18 17 17 17 18 19 19 20 20 20 20 21 21 21 21 21 20 20 20 20 20 20 20 21 21 21 21 21 22 22 22 22 22 22 22 23 23 23 23 23 23 23 23 24 25 25 25 25 25 25 26 26 25 24 24 24 23 23 23 23
13 13 14 14 15 15 16 16 16 16 16 16 16 16 16 17 17 18 18 18 17 18 18 18 18 18 18 18 18 19 19 19 20 20 20 20 21 21 22 22 21 20 20 21 21 21 21 21 21 21 21 21 21 21 21 22 22 22 22 22 22 22 23 23 23 23 23 23 24 24 24 24 24 24 24 25 25 24 23 23 23 23 23 23 23
14 14 15 15 15 16 16 16 16 16 16 16 16 16 16 16 17 17 18 18 17 17 17 17 18 18 18 19 19 19 19 20 20 20 20 20 21 21 21 21 21 21 20 20 20 21 21 21 21 21 21 21 21 21 21 21 21 22 22 22 22 23 23 23 23 24 24 24 24 24 24 23 23 23 24 24 24 23 23 22 23 23 23 23 23
15 15 15 16 16 16 16 16 16 16 16 16 16 16 16 16 17 17 18 18 18 17 17 17 18 18 18 19 19 19 20 20 20 21 21 21 21 21 21 21 21 21 21 21 21 21 21 21 21 21 21 21 21 21 21 21 22 22 22 22 23 23 23 23 23 24 24 23 23 23 23 23 23 24 24 24 23 22 22 23 23 23 23 23 24
15 15 16 16 16 16 16 16 16 17 16 16 16 16 16 17 17 17 17 17 17 17 17 18 18 18 19 20 20 20 20 21 21 21 20 20 20 20 20 20 20 20 20 21 21 21 20 21 21 21 21 21 21 22 22 22 22 23 23 23 23 23 23 23 23 23 23 23 24 23 23 23 24 24 24 24 23 23 23 24 24 24 24 24 25
15 15 16 16 16 16 17 17 17 17 17 17 17 16 16 17 17 17 17 17 18 18 18 18 18 19 20 20 20 20 20 20 20 20 20 20 20 20 20 20 20 20 20 20 20 20 20 20 21 21 21 22 22 22 22 23 23 23 24 24 24 24 24 23 23 24 24 24 24 24 24 24 24 24 24 24 24 24 24 25 25 26 26 26 26
16 16 16 16 17 17 17 18 18 18 17 17 17 17 17 17 17 18 18 18 18 18 19 18 19 19 20 20 20 20 20 20 20 20 20 20 20 20 20 20 20 21 21 21 21 21 22 22 22 22 23 23 23 23 24 24 24 24 25 25 25 25 24 24 24 25 26 26 26 26 26 25 25 25 25 25 25 25 25 26 26 27 27 27 27
16 16 17 17 17 18 18 18 18 18 18 17 17 17 17 18 18 18 18 18 18 19 19 19 19 19 20 21 21 20 20 20 20 20 20 20 21 21 21 21 21 22 22 23 23 23 24 24 24 24 24 24 25 25 25 25 26 26 26 26 26 26 26 26 27 27 27 28 28 27 27 27 27 27 27 27 27 27 27 27 27 27 28 27 27
17 17 17 18 18 18 19 19 19 19 18 18 18 18 18 18 18 18 18 19 19 19 19 19 19 20 20 21 21 21 20 20 20 21 21 21 21 21 22 22 23 23 24 24 24 24 25 25 25 25 26 26 26 26 26 26 27 27 27 27 27 27 27 28 28 29 29 28 28 29 29 29 29 28 28 28 28 28 27 28 28 28 28 28 27
17 17 17 18 18 19 19 20 20 19 19 19 19 19 19 18 18 18 19 19 19 19 20 20 20 20 20 20 21 21 21 21 21 21 21 22 22 22 23 23 24 24 24 25 25 25 25 25 26 26 26 26 26 26 26 26 27 27 27 27 27 27 28 28 28 29 29 29 29 29 30 30 30 29 29 28 28 29 29 29 28 28 28 28 27
16 17 17 18 18 19 19 19 19 19 19 18 18 18 18 18 18 18 19 19 19 19 19 20 20 20 20 20 21 21 21 21 21 22 22 22 23 23 24 24 25 25 25 25 25 25 26 26 26 26 26 26 26 26 26 26 26 26 27 27 27 27 28 28 28 29 29 29 30 30 30 31 31 30 30 30 30 30 30 29 29 28 28 27 26
16 16 17 17 17 17 18 18 18 18 18 18 18 18 18 18 18 18 19 19 19 19 20 20 20 21 21 21 21 21 21 22 22 22 23 23 23 24 24 25 25 26 26 26 26 26 26 26 26 27 27 27 27 27 27 27 27 27 27 28 28 29 29 29 30 30 30 30 31 31 31 31 31 31 31 31 31 31 31 30 30 29 28 27 27
16 16 16 16 16 16 17 17 17 18 18 18 18 18 18 18 18 18 18 18 19 19 20 20 21 21 21 22 22 22 23 23 23 24 24 24 25 25 25 26 26 27 27 27 27 27 28 28 28 28 28 28 28 28 28 28 28 28 29 29 29 30 30 31 31 31 31 31 31 32 32 32 31 31 31 31 31 30 31 31 31 30 29 29 29
16 16 16 16 16 16 16 17 17 17 17 17 17 17 18 18 18 18 18 19 19 20 20 20 21 21 22 22 23 24 24 24 25 25 25 25 26 26 26 26 27 27 27 27 28 28 29 29 29 29 28 29 29 28 29 29 29 29 30 30 30 31 31 32 32 32 32 32 32 32 32 32 31 31 31 31 31 31 31 31 31 31 31 30 30
15 16 16 16 16 16 16 16 17 17 17 18 17 17 18 18 19 19 19 20 20 20 21 21 22 22 22 23 23 24 25 25 25 26 26 26 26 26 27 27 27 27 27 28 28 28 28 29 29 29 29 29 30 30 30 30 30 30 30 31 31 31 32 32 32 32 32 32 32 32 32 32 32 31 31 31 31 31 31 31 31 31 31 31 30
15 15 15 16 15 15 15 16 16 17 17 18 18 17 18 19 19 19 19 20 21 21 21 22 23 23 23 23 24 24 25 25 26 27 27 27 26 27 27 28 28 28 28 29 29 29 29 29 30 29 29 30 30 31 31 31 31 31 32 32 32 33 33 33 33 33 33 33 33 32 32 32 32 32 31 31 31 31 31 32 32 32 32 32 32
15 15 15 16 15 15 15 16 16 16 16 17 18 18 18 19 19 20 20 21 22 22 22 23 24 24 24 25 25 25 25 26 27 27 28 28 28 28 28 29 29 29 29 30 30 30 30 30 30 30 30 30 31 31 31 32 32 32 32 33 33 34 34 34 34 34 34 33 33 32 32 31 31 32 32 32 31 31 31 31 32 32 32 33 33
14 14 15 15 15 15 15 16 16 16 17 18 18 19 19 19 20 21 21 22 23 23 24 24 25 25 25 26 26 26 26 27 27 28 29 29 29 29 29 30 30 30 31 31 31 31 31 31 32 31 31 31 32 32 32 33 33 33 33 34 34 34 34 34 34 34 34 34 33 32 32 31 31 32 32 32 32 32 32 31 31 31 31 31 31
Wind_Direction
233 234 235 237 238 239 242 245 246 248 249 249 249 249 249 249 247 248 249 250 251 252 252 253 254 255 254 251 249 249 248 246 245 245 245 245 247 248 250 250 250 250 249 250 250 251 252 254 256 258 260 262 263 264 265 267 268 269 270 270 270 271 270 268 269 272 274 276 276 278 280 279 277 279 279 279 278 276 276 277 278 278 280 282 283
234 236 237 238 240 241 244 247 248 249 250 250 248 248 250 250 249 248 249 249 250 252 253 253 253 253 253 252 250 250 249 248 246 246 246 247 247 248 249 250 250 250 251 252 252 252 253 254 256 258 260 262 262 263 265 267 268 269 271 272 273 274 273 270 270 272 274 275 276 278 280 280 278 279 279 279 278 278 279 280 280 278 278 280 282
236 237 237 238 241 243 244 247 250 250 250 250 249 248 249 249 249 249 248 248 249 250 253 255 254 253 254 255 253 251 251 250 248 246 247 248 249 249 249 250 251 251 252 253 253 253 254 255 257 258 260 261 262 263 264 266 268 269 270 272 274 276 276 274 274 274 276 278 278 278 279 279 279 280 281 279 280 282 284 286 286 283 281 280 281
236 236 236 237 239 241 243 247 249 249 250 251 251 250 250 249 249 248 247 248 249 250 254 258 258 257 256 257 255 253 251 250 249 248 248 250 251 251 251 251 252 252 253 254 254 254 255 256 257 258 259 260 262 263 264 266 267 269 270 271 272 274 275 275 275 275 276 277 278 278 278 278 279 281 280 279 281 283 284 285 284 285 286 283 281
236 235 234 235 236 240 245 248 249 250 252 252 253 253 252 249 247 247 247 249 252 254 257 260 260 259 258 258 257 256 254 252 250 250 250 251 252 252 253 253 253 254 254 255 256 255 256 257 258 258 258 260 261 262 264 265 267 268 269 270 272 273 274 275 276 275 275 275 277 278 279 279 280 281 281 280 282 282 282 282 282 283 284 282 280
237 236 235 235 237 242 248 252 254 255 255 256 259 257 253 249 247 245 245 249 253 255 258 259 260 261 260 259 259 259 257 255 252 251 251 252 252 253 254 254 255 255 255 256 256 257 258 259 259 259 258 259 260 261 263 264 266 267 268 270 272 273 274 275 276 276 276 276 276 278 279 280 280 281 281 281 282 281 280 281 282 282 281 281 279
240 241 242 246 249 252 258 261 263 263 260 260 262 259 257 256 252 245 243 248 253 256 258 258 259 259 259 260 261 261 260 258 255 254 252 252 253 253 254 254 255 255 256 256 256 257 258 260 261 261 260 258 259 261 262 263 265 266 268 269 271 272 274 276 276 277 277 277 278 278 279 280 280 281 281 281 281 281 280 279 280 280 280 280 279
247 252 260 265 263 265 273 274 270 267 264 260 259 258 259 259 252 247 248 252 255 257 259 260 259 259 258 260 261 261 261 260 258 256 255 254 254 254 255 256 256 257 257 258 259 259 259 260 260 261 261 260 260 261 262 263 264 266 268 269 271 273 274 275 276 276 277 277 278 279 279 280 280 281 281 280 280 279 279 278 279 280 280 280 279
260 265 268 267 263 266 272 275 273 271 266 260 258 259 259 254 248 247 251 254 255 258 261 262 262 261 260 260 261 260 260 260 259 258 258 258 257 257 256 257 257 258 259 260 261 261 260 260 260 260 262 263 263 263 263 263 264 266 268 270 272 274 274 275 276 276 277 278 278 279 279 280 280 280 280 279 279 279 279 278 279 279 279 279 280
268 268 266 263 263 267 270 273 275 275 268 259 258 259 258 251 243 244 250 255 257 260 262 264 264 263 262 262 261 261 261 261 261 260 259 259 260 260 259 258 258 259 259 260 261 260 260 261 261 262 263 265 266 267 266 265 264 266 269 271 273 274 275 275 276 277 278 278 279 279 279 279 280 280 279 279 280 279 278 278 279 279 279 280 281
268 267 264 262 263 267 270 271 272 272 265 258 256 257 254 247 242 245 252 256 258 260 263 266 266 265 264 263 261 261 262 262 263 263 261 260 261 262 262 261 260 260 260 261 261 261 262 261 261 262 263 264 265 267 268 267 267 268 270 272 273 274 275 276 277 278 279 279 279 278 279 279 280 280 280 280 281 281 280 280 279 279 279 279 280
264 264 263 261 262 266 269 267 266 266 262 255 253 253 250 246 244 247 252 255 257 262 265 266 266 266 265 264 263 263 264 264 264 263 261 261 262 263 264 264 263 263 262 262 263 264 265 264 263 264 265 266 267 266 267 269 270 271 272 273 274 274 275 276 277 278 279 279 279 279 279 280 281 281 281 282 284 285 284 281 279 278 278 278 279
259 260 259 259 262 265 265 261 258 260 259 253 248 245 243 242 242 246 251 255 258 262 264 264 266 268 269 268 267 267 267 265 264 263 262 262 263 265 266 266 266 266 265 266 267 268 268 269 269 268 267 267 268 268 270 271 271 272 273 274 274 275 276 276 277 277 278 279 279 279 280 281 281 282 283 285 288 287 285 283 281 280 280 279 280
256 258 260 262 264 263 260 254 253 254 253 249 242 239 239 241 245 251 256 258 259 261 264 266 267 270 272 272 271 270 269 269 268 266 265 265 266 268 268 267 267 268 268 269 271 272 273 273 272 271 269 267 267 269 272 273 272 272 273 273 274 275 276 277 277 278 279 280 280 280 281 282 283 285 286 288 289 288 286 285 284 283 283 282 283
257 261 265 266 262 259 256 254 253 251 249 246 243 245 249 250 253 257 260 262 262 265 268 269 270 271 272 273 272 271 271 273 273 270 268 268 270 271 272 271 271 270 272 273 275 276 276 276 276 274 272 270 270 272 273 274 273 273 274 275 275 276 277 278 280 281 282 283 283 283 283 284 285 287 288 288 289 289 287 286 286 285 284 284 284
255 261 266 263 256 256 255 252 248 245 244 244 244 249 254 256 258 260 262 264 265 267 268 269 271 273 273 273 274 273 274 276 277 274 271 270 272 274 275 276 276 275 276 276 277 278 279 279 279 279 277 275 275 276 276 275 275 276 277 277 278 279 280 281 282 284 284 285 286 287 287 287 287 289 289 290 290 290 289 289 288 286 285 285 285
263 263 260 256 253 256 254 251 250 248 246 248 250 253 257 261 265 265 263 265 266 268 271 272 273 275 275 275 276 276 277 279 279 278 275 273 275 277 279 279 278 277 278 279 280 281 281 281 281 280 280 279 278 279 280 279 278 278 279 280 282 283 283 284 284 285 285 286 287 288 288 288 288 289 289 289 290 291 290 289 289 288 287 288 288
267 268 264 256 248 248 250 254 259 257 253 255 258 261 263 266 267 267 266 267 270 272 274 276 278 279 279 279 279 279 281 281 280 279 279 279 281 282 281 281 279 278 279 281 282 282 283 283 282 281 281 280 280 281 282 281 280 281 283 284 285 285 285 286 286 286 287 288 289 289 289 289 289 288 287 286 287 288 288 288 289 289 288 289 290
209 218 221 211 211 224 243 251 252 251 256 263 266 267 269 270 270 270 271 273 277 279 279 280 283 285 286 285 283 282 282 282 281 281 282 283 284 284 284 283 281 281 281 282 282 283 283 283 284 283 281 281 281 282 283 283 283 285 285 286 286 286 287 288 288 289 290 291 291 291 292 291 291 290 290 288 288 288 290 291 292 291 289 290 291
132 133 137 153 171 190 233 250 255 260 267 273 274 274 277 278 278 277 279 282 284 284 284 284 285 289 290 289 288 287 285 285 284 284 285 287 289 289 288 287 285 284 285 284 285 285 285 284 285 285 283 282 283 284 286 287 287 287 288 288 288 289 289 290 291 291 292 293 293 294 294 294 295 295 295 294 293 293 294 295 295 294 292 294 294
129 131 134 140 151 168 227 272 275 279 283 282 281 283 283 284 284 282 282 285 285 286 287 287 287 289 291 291 292 291 288 287 288 290 290 291 292 291 289 289 289 288 287 286 287 288 287 285 285 285 285 285 287 287 288 289 289 289 290 290 290 291 292 293 294 294 294 295 295 296 297 298 299 299 298 298 297 296 296 296 296 296 295 296 297
124 124 121 119 117 113 360 313 304 300 298 293 290 290 289 288 289 287 287 289 290 290 292 291 291 292 293 294 296 294 291 290 292 295 297 296 294 292 291 291 291 291 289 288 287 288 287 285 284 285 286 287 288 288 289 289 289 290 290 290 290 291 292 293 294 294 295 295 296 297 297 298 298 297 297 297 296 296 296 296 296 296 296 296 297
118 117 113 111 101 72 11 330 322 316 308 302 298 297 296 295 294 293 294 296 296 297 298 297 296 296 296 296 296 294 292 293 294 296 299 298 296 295 295 294 293 293 293 291 289 288 287 286 285 285 286 286 287 287 288 288 288 289 289 289 290 291 293 293 294 294 295 295 295 295 296 296 295 295 295 295 296 296 296 296 296 296 296 296 295
120 118 111 103 72 23 355 336 329 322 316 312 308 305 303 302 301 300 301 301 301 301 301 300 299 299 299 298 298 296 294 294 295 296 298 298 296 295 295 295 296 296 296 294 293 291 290 289 288 287 287 286 286 286 286 287 287 288 288 289 290 292 292 293 295 296 295 294 294 294 295 295 295 295 296 296 297 297 297 298 298 298 298 297 297
122 111 78 30 352 335 328 328 326 321 319 318 315 313 309 307 308 308 307 306 306 306 305 303 301 301 300 300 299 299 297 295 296 297 299 299 298 297 296 296 296 296 296 296 294 293 292 292 291 291 290 289 289 288 288 287 287 288 289 289 290 292 293 294 296 298 296 294 294 295 295 296 296 296 296 297 297 298 299 300 301 302 302 301 300
149 351 341 334 329 322 318 320 320 316 314 314 313 313 311 309 310 312 310 308 307 306 306 305 304 303 302 301 301 302 301 299 298 298 299 299 299 299 300 300 298 296 296 296 295 294 293 292 292 292 291 290 289 289 290 290 289 290 291 291 291 294 295 294 295 296 296 295 296 297 296 296 296 297 297 296 296 297 299 300 302 303 304 303 303
267 288 302 309 312 311 309 310 310 306 304 305 306 306 306 308 310 311 310 308 308 307 306 305 306 306 304 301 301 302 303 302 300 300 300 300 300 300 301 301 300 299 298 298 297 295 294 293 292 291 290 289 288 289 291 291 290 291 293 292 292 293 293 292 291 293 294 295 296 298 297 296 296 297 297 296 296 297 298 300 302 303 304 304 303
277 287 297 304 305 304 302 302 302 300 300 303 305 305 304 307 309 309 308 309 309 308 307 308 308 307 306 303 301 300 301 300 299 299 300 300 300 300 300 301 300 300 300 300 299 297 296 294 292 291 290 290 290 291 291 291 290 291 292 291 291 292 291 290 290 290 291 292 294 296 296 295 294 295 296 296 296 296 297 298 300 302 303 304 303
281 289 295 298 298 299 301 300 297 297 297 298 298 299 301 303 303 302 304 307 307 305 303 303 303 304 304 303 301 299 298 297 297 297 298 298 299 299 299 300 300 300 301 301 300 298 296 294 292 291 290 290 290 290 290 290 290 291 292 292 293 293 292 291 290 288 289 292 294 295 295 293 293 294 294 294 295 295 295 297 299 300 301 303 303
289 295 297 297 298 299 302 303 299 298 299 296 291 292 296 299 300 300 301 305 307 305 302 300 300 301 301 300 300 301 300 298 297 297 298 298 299 298 298 299 300 301 302 302 300 298 296 293 292 291 291 290 290 291 292 293 293 294 295 296 295 295 294 294 294 292 292 294 296 295 294 293 292 293 294 294 294 294 295 296 298 299 300 302 303
293 298 300 300 302 303 304 305 301 297 297 296 292 291 294 296 300 302 302 303 305 305 303 301 302 303 302 300 301 302 302 300 299 299 299 298 298 298 298 299 300 301 302 302 300 298 294 293 293 294 293 293 293 294 295 296 296 297 296 296 296 296 296 297 298 297 297 297 297 295 293 292 292 293 293 293 294 294 294 296 298 298 299 300 302
297 301 300 300 304 306 305 306 304 298 294 293 293 293 293 293 296 299 301 302 303 303 303 302 303 304 304 303 302 302 302 301 300 300 300 299 299 299 299 299 300 300 301 302 302 298 294 294 295 295 296 296 296 296 297 298 298 299 298 297 296 296 297 298 298 298 298 298 297 295 292 292 293 293 292 292 292 292 293 295 297 298 298 299 301
300 302 301 300 303 305 305 305 303 300 295 293 292 293 293 293 294 296 297 299 301 301 301 301 301 302 303 303 303 302 301 301 300 300 300 299 299 299 300 299 300 300 299 301 302 298 295 295 296 296 297 297 297 297 297 297 297 297 297 296 295 296 296 296 297 297 297 297 296 295 293 292 293 293 291 291 291 290 290 293 295 296 296 297 299
302 302 301 300 302 304 304 303 301 299 296 294 293 293 293 294 295 296 296 297 298 298 299 299 298 299 300 301 301 301 301 301 301 300 299 299 298 299 299 299 299 299 299 300 300 299 297 296 297 297 297 297 296 296 296 296 296 296 296 296 295 295 295 296 296 296 296 296 296 295 293 292 292 291 290 292 292 290 288 291 295 296 296 296 298
301 301 300 301 302 303 303 301 300 299 296 294 293 294 294 294 296 298 299 299 299 299 299 299 298 298 300 300 300 300 301 302 302 301 300 299 299 299 299 300 299 299 299 299 299 298 298 297 297 297 297 296 296 296 297 297 297 297 297 297 296 296 297 297 297 296 296 295 295 296 294 292 291 290 290 292 293 292 289 289 292 294 295 295 296
299 299 300 301 302 303 303 302 302 302 298 294 294 294 294 295 297 299 300 300 300 299 300 300 300 300 300 300 300 300 300 301 301 301 301 301 301 301 300 300 299 299 299 299 298 298 298 298 299 299 298 298 298 298 297 297 297 297 297 297 297 297 297 297 297 296 296 296 297 297 296 294 292 291 291 291 293 294 293 293 292 292 293 294 294
296 297 299 300 301 303 304 304 305 305 301 297 295 295 295 296 299 300 300 300 301 301 300 301 301 301 301 301 300 300 300 300 300 301 301 301 301 301 301 300 299 299 300 300 300 299 299 299 299 299 299 299 298 298 298 297 298 298 298 297 298 298 297 297 297 297 297 297 297 298 297 296 295 295 294 293 293 295 296 297 296 294 292 293 294
296 295 296 297 298 301 303 304 305 305 302 298 296 296 297 298 299 301 302 302 302 302 302 302 303 303 303 303 302 300 300 300 300 300 300 300 301 301 301 301 301 301 301 301 301 300 300 299 299 299 299 299 298 298 298 298 298 298 298 298 299 299 298 297 297 297 297 297 297 297 297 296 297 296 295 294 295 295 294 295 295 294 292 292 293
297 297 297 297 298 300 302 303 303 303 302 299 298 298 298 299 299 301 302 302 302 302 302 302 303 304 304 304 304 303 301 301 301 301 301 301 301 302 302 302 301 301 301 301 301 301 301 301 300 299 299 299 299 298 298 298 298 298 298 298 298 298 298 298 297 296 296 296 296 297 297 297 297 296 295 294 295 296 295 294 294 294 293 292 292
295 296 297 298 298 299 301 301 301 301 301 301 300 300 299 299 300 301 302 302 301 301 301 302 303 304 304 305 305 304 302 301 302 302 302 301 301 302 302 301 301 301 301 300 300 300 300 300 300 299 298 298 298 298 297 297 297 297 297 297 297 297 297 297 297 296 295 295 294 295 296 296 296 295 294 294 295 295 295 294 294 293 293 292 292
294 294 296 297 298 299 299 300 300 301 300 300 300 300 299 299 299 299 300 301 301 301 301 302 303 303 304 304 304 303 302 301 301 301 301 301 301 300 300 300 300 300 299 299 299 299 298 298 298 297 297 297 296 296 296 296 296 295 295 295 295 294 294 294 295 295 295 294 293 293 292 293 294 294 293 292 293 292 292 292 293 292 292 292 292
293 293 294 295 296 297 298 299 300 300 299 298 298 298 298 299 299 299 299 300 300 300 301 301 301 301 303 304 304 302 301 301 301 301 301 301 300 300 300 299 299 298 298 298 298 298 298 297 297 297 296 296 296 296 296 296 296 296 296 295 295 294 293 293 293 294 294 293 293 292 291 290 291 292 292 292 292 291 291 291 291 291 291 291 291
293 293 294 295 296 297 297 298 299 299 299 299 298 298 298 298 299 300 300 299 299 300 300 301 301 301 302 304 304 302 301 302 302 301 301 301 301 300 300 299 299 298 298 298 299 298 298 297 297 297 297 297 297 297 297 297 296 296 297 297 296 296 295 295 294 293 293 292 292 292 291 290 289 289 290 290 290 290 291 291 291 289 289 289 289
294 294 296 297 299 299 298 298 299 299 298 299 299 300 299 299 299 300 301 300 300 300 300 301 301 302 302 304 304 303 303 303 303 302 302 301 301 301 301 300 300 299 299 299 299 299 298 297 297 297 297 297 298 298 298 297 297 297 297 297 297 297 297 297 296 295 294 293 292 292 292 291 290 288 288 288 289 289 289 289 290 290 289 289 288
295 296 297 298 300 301 300 299 298 299 299 299 300 300 300 300 300 301 301 302 302 301 301 302 302 303 303 304 304 304 303 303 302 302 302 301 301 301 301 301 300 299 299 299 299 299 299 298 297 297 297 297 297 298 298 298 298 297 297 297 297 297 296 296 296 295 295 294 293 292 291 291 290 289 288 288 288 288 286 286 287 288 288 288 288
297 298 299 299 299 301 302 301 300 300 300 301 301 301 301 301 301 301 301 302 302 301 302 302 302 302 302 302 302 303 302 301 301 301 300 300 300 300 300 300 300 299 299 299 299 299 299 298 298 297 297 297 297 297 298 298 298 297 297 297 297 296 296 295 295 294 294 294 293 292 291 290 289 289 288 288 287 287 286 284 284 284 284 285 285
297 297 299 299 300 301 302 302 301 301 301 300 301 301 302 302 301 301 302 303 303 302 302 302 302 302 302 302 301 301 300 300 300 301 300 300 301 301 300 300 300 299 299 299 299 299 300 299 298 297 297 297 298 297 297 297 297 296 296 297 297 296 296 295 294 294 294 293 292 292 291 289 288 287 287 287 286 286 286 284 283 282 282 282 282
298 297 298 299 300 300 301 301 301 302 302 301 302 303 302 302 302 303 304 304 304 304 304 303 303 303 302 302 303 302 301 300 300 301 301 301 302 301 301 301 301 300 299 299 299 299 299 299 298 296 296 297 297 296 296 296 296 296 296 297 297 297 297 296 295 294 294 293 292 292 291 290 288 287 287 287 286 285 285 284 283 282 281 280 280
298 298 298 299 299 299 299 300 301 301 302 302 303 305 304 303 305 306 306 305 305 305 305 304 304 304 303 304 304 303 303 302 302 301 301 302 302 302 301 301 300 300 299 299 299 298 298 298 297 295 295 297 297 296 296 296 297 296 296 297 297 298 298 297 296 296 295 294 293 292 292 290 288 288 289 288 287 286 285 283 283 282 281 280 280
298 298 299 300 301 301 301 301 302 302 303 303 304 305 305 305 306 307 306 305 306 306 305 305 305 305 304 304 304 304 303 303 302 302 302 302 302 301 301 300 300 299 299 299 299 298 298 298 297 296 296 296 297 296 296 296 297 296 297 297 298 298 298 298 297 297 296 294 292 291 291 290 289 289 289 288 287 286 286 284 283 282 281 281 281
300 301 301 303 304 305 305 305 306 306 306 306 306 306 306 307 307 307 306 306 306 306 306 305 305 305 305 305 304 304 304 303 302 301 302 302 302 301 301 300 300 299 299 299 299 299 298 298 298 297 297 297 297 296 296 296 296 296 296 297 298 298 298 298 297 297 297 295 293 291 290 290 289 289 288 288 287 286 286 285 284 283 282 282 281